Lubbock, TX

11:29 PM CST on December 17, 2017 (GMT -0600)
Lubbock International

Weather History for KLBB - February, 2012

Change the Weather History Date:

Wednesday, February 8, 2012

  Actual Average Record
Temperature  
Mean Temperature 31 °F 43 °F  
Max Temperature 48 °F 57 °F 83 °F (1951)
Min Temperature 14 °F 29 °F -17 °F (1933)
Degree Days  
Heating Degree Days 34 22  
Month to date heating degree days 199 181  
Since 1 July heating degree days 2239 2346  
Cooling Degree Days 0 0  
Month to date cooling degree days 0 0  
Year to date cooling degree days 0 0  
Moisture  
Dew Point 18 °F    
Average Humidity 63    
Maximum Humidity 88    
Minimum Humidity 37    
Precipitation  
Precipitation 0.00 in 0.03 in 0.73 in (2009)
Month to date precipitation 0.00 0.21  
Year to date precipitation 0.01 0.86  
Snow  
Snow 0.00 in 0.00 in 3.00 in (1929)
Month to date snowfall 0.0 0.6  
Since 1 July snowfall 4.0 6.4  
Snow Depth 0.00 in    
Sea Level Pressure  
Sea Level Pressure 30.37 in    
Wind  
Wind Speed 8 mph (SW)    
Max Wind Speed 17 mph    
Max Gust Speed 22 mph    
Visibility 9 miles    
Events      
T = Trace of Precipitation, MM = Missing Value Source: NWS Daily Summary

Daily Weather History Graph

Daily Weather History Graph

Search for Another Location

Airport or City:

Trip Planner

Search our weather history database for the weather conditions in past years. The results will help you decide how hot, cold, wet, or windy it might be!

Date:

Astronomy

Feb. 08, 2012 Rise Set
Actual Time 7:38 AM CST 6:24 PM CST
Civil Twilight 7:12 AM CST 6:50 PM CST
Nautical Twilight 6:43 AM CST 7:20 PM CST
Astronomical Twilight 6:14 AM CST 7:49 PM CST
Moon 7:39 PM CST (2/8) 7:48 AM CST (2/8)
Length of Visible Light 11h 37m
Length of Day
10h 46m
Full, 99% of the Moon is Illuminated
Feb 8
Full
Feb 14
Last Quarter
Feb 21
New
Feb 29
First Quarter
Mar 8
Full

Hourly Weather History & Observations

Time (CST) Temp. Windchill Dew Point Humidity Pressure Visibility Wind Dir Wind Speed Gust Speed Precip Events Conditions
12:53 AM 19.9 °F 14.9 °F 15.1 °F 81% 30.48 in 8.0 mi NW 3.5 mph - N/A   Clear
1:53 AM 17.1 °F 7.6 °F 14.0 °F 88% 30.48 in 9.0 mi NNW 6.9 mph - N/A   Clear
2:53 AM 18.0 °F 9.8 °F 14.0 °F 84% 30.48 in 10.0 mi NNW 5.8 mph - N/A   Clear
3:53 AM 16.0 °F 6.3 °F 12.9 °F 88% 30.48 in 7.0 mi NNW 6.9 mph - N/A   Clear
4:53 AM 16.0 °F 6.3 °F 12.9 °F 88% 30.47 in 7.0 mi NNW 6.9 mph - N/A   Clear
5:53 AM 16.0 °F 7.4 °F 12.9 °F 88% 30.47 in 7.0 mi North 5.8 mph - N/A   Clear
6:53 AM 15.1 °F 9.4 °F 12.0 °F 88% 30.48 in 7.0 mi NNW 3.5 mph - N/A   Clear
7:53 AM 15.1 °F 5.2 °F 10.9 °F 84% 30.47 in 6.0 mi North 6.9 mph - N/A   Partly Cloudy
8:53 AM 21.0 °F 14.6 °F 16.0 °F 81% 30.49 in 6.0 mi West 4.6 mph - N/A   Haze
9:53 AM 27.0 °F - 19.9 °F 75% 30.48 in 9.0 mi Calm Calm - N/A   Partly Cloudy
10:53 AM 30.9 °F 26.2 °F 19.9 °F 64% 30.47 in 10.0 mi SW 4.6 mph - N/A   Partly Cloudy
11:53 AM 36.0 °F 32.1 °F 19.9 °F 52% 30.45 in 10.0 mi SSE 4.6 mph - N/A   Scattered Clouds
12:53 PM 39.9 °F 33.9 °F 21.0 °F 47% 30.41 in 10.0 mi South 9.2 mph 16.1 mph N/A   Partly Cloudy
1:53 PM 43.0 °F 36.4 °F 21.0 °F 42% 30.36 in 10.0 mi SSW 12.7 mph - N/A   Partly Cloudy
2:53 PM 46.0 °F 40.6 °F 21.0 °F 37% 30.31 in 10.0 mi SSW 11.5 mph - N/A   Partly Cloudy
3:53 PM 46.9 °F - 21.0 °F 36% 30.28 in 10.0 mi SSW 11.5 mph - N/A   Scattered Clouds
4:53 PM 46.9 °F - 21.0 °F 36% 30.26 in 10.0 mi SSW 15.0 mph - N/A   Scattered Clouds
5:53 PM 46.0 °F 40.2 °F 21.0 °F 37% 30.25 in 10.0 mi SSW 12.7 mph - N/A   Scattered Clouds
6:53 PM 43.0 °F 37.2 °F 21.9 °F 43% 30.25 in 10.0 mi SSW 10.4 mph - N/A   Partly Cloudy
7:53 PM 41.0 °F 35.8 °F 21.9 °F 47% 30.26 in 10.0 mi South 8.1 mph - N/A   Partly Cloudy
8:53 PM 39.0 °F 32.3 °F 21.9 °F 50% 30.26 in 10.0 mi South 10.4 mph - N/A   Partly Cloudy
9:53 PM 37.9 °F 31.5 °F 23.0 °F 55% 30.25 in 10.0 mi South 9.2 mph - N/A   Partly Cloudy
10:53 PM 37.0 °F 28.9 °F 24.1 °F 59% 30.24 in 10.0 mi South 12.7 mph - N/A   Partly Cloudy
11:53 PM 35.1 °F 26.9 °F 23.0 °F 61% 30.22 in 10.0 mi South 11.5 mph - N/A   Mostly Cloudy